#�ϑ�����,���ϕ���,���ϕ���,�ő啗��,�ő啗����������,�ő�u�ԕ���,�ő�u�ԕ�����������
#(�N����),(m/s)   ,(16����),(m/s)   ,(16����)        ,(m/s)       ,(16����)            
2013/12/12 0:01,3.3,10,3.4,10,3.5,9
2013/12/12 0:02,3.2,10,3.4,10,5.2,9
2013/12/12 0:03,3.1,10,3.2,10,4.4,11
2013/12/12 0:04,3,10,3.1,10,5.2,11
2013/12/12 0:05,2.9,10,2.9,10,5.4,10
2013/12/12 0:06,2.6,10,2.9,10,3.5,10
2013/12/12 0:07,2.6,10,2.7,10,3.6,9
2013/12/12 0:08,2.6,10,2.6,10,3.6,10
2013/12/12 0:09,2.5,11,2.6,10,4.2,8
2013/12/12 0:10,2.3,10,2.5,10,2.7,10
2013/12/12 0:11,2.2,11,2.3,10,4.4,11
2013/12/12 0:12,2.3,11,2.3,10,3.5,11
2013/12/12 0:13,2.2,11,2.2,10,3.3,10
2013/12/12 0:14,2,11,2.2,10,3.3,10
2013/12/12 0:15,1.9,11,2,10,2.6,10
2013/12/12 0:16,2,11,2,10,3.5,11
2013/12/12 0:17,1.9,11,2,10,2.5,11
2013/12/12 0:18,1.8,11,1.9,10,2.2,11
2013/12/12 0:19,1.7,10,1.8,11,1.5,8
2013/12/12 0:20,1.7,10,1.8,10,2.6,9
2013/12/12 0:21,1.6,10,1.7,11,3.6,11
2013/12/12 0:22,1.6,10,1.6,11,4.2,10
2013/12/12 0:23,1.7,10,1.7,11,3.5,9
2013/12/12 0:24,1.8,10,1.8,11,5.1,10
2013/12/12 0:25,1.8,10,1.8,11,3.7,9
2013/12/12 0:26,1.8,10,1.9,11,4.2,10
2013/12/12 0:27,1.8,10,1.8,11,3.1,10
2013/12/12 0:28,2,10,2,10,3.8,10
2013/12/12 0:29,2.1,10,2.1,10,3.7,11
2013/12/12 0:30,2.2,10,2.2,10,3.6,10
2013/12/12 0:31,2.3,10,2.3,10,3.9,10
2013/12/12 0:32,2.2,10,2.3,10,3.9,10
2013/12/12 0:33,2.2,10,2.2,10,2.6,10
2013/12/12 0:34,2.1,10,2.2,10,3.3,9
2013/12/12 0:35,2.2,10,2.2,10,3.8,11
2013/12/12 0:36,2.2,10,2.2,10,4.2,10
2013/12/12 0:37,2.4,10,2.4,10,3.7,11
2013/12/12 0:38,2.3,10,2.4,10,4.1,11
2013/12/12 0:39,2.2,10,2.3,10,3.2,10
2013/12/12 0:40,2.2,10,2.2,10,2.7,10
2013/12/12 0:41,2.3,10,2.3,10,4.7,9
2013/12/12 0:42,2.4,10,2.4,10,3.8,11
2013/12/12 0:43,2.4,10,2.4,10,3.9,10
2013/12/12 0:44,2.5,10,2.5,10,4.9,11
2013/12/12 0:45,2.5,10,2.5,10,4.3,10
2013/12/12 0:46,2.4,10,2.5,10,4.9,9
2013/12/12 0:47,2.5,10,2.5,10,4.9,9
2013/12/12 0:48,2.4,10,2.5,10,5.4,10
2013/12/12 0:49,2.6,10,2.6,10,4.7,11
2013/12/12 0:50,2.6,10,2.6,10,3.5,10
2013/12/12 0:51,2.5,10,2.6,10,4.4,10
2013/12/12 0:52,2.6,10,2.6,10,5.7,11
2013/12/12 0:53,2.7,10,2.7,10,5.4,10
2013/12/12 0:54,2.7,10,2.7,10,4.4,10
2013/12/12 0:55,2.8,10,2.8,10,5.8,10
2013/12/12 0:56,2.9,10,2.9,10,5.8,10
2013/12/12 0:57,3,10,3,10,5.5,11
2013/12/12 0:58,3.1,10,3.1,10,6,10
2013/12/12 0:59,3.2,10,3.2,10,4.9,10
2013/12/12 1:00,3.2,10,3.3,10,5.6,10
2013/12/12 1:01,3.2,10,3.2,10,6,9
2013/12/12 1:02,3.1,10,3.2,10,6.2,9
2013/12/12 1:03,3.2,10,3.2,10,6.4,10
2013/12/12 1:04,3.2,10,3.2,10,5.8,10
2013/12/12 1:05,3.2,10,3.2,10,6,10
2013/12/12 1:06,3.3,10,3.3,10,6.4,9
2013/12/12 1:07,3.1,10,3.3,10,5,9
2013/12/12 1:08,2.9,10,3.1,10,3.5,10
2013/12/12 1:09,2.8,10,2.9,10,4.9,9
2013/12/12 1:10,2.9,10,2.9,10,5.6,9
2013/12/12 1:11,3.1,10,3.1,10,5.8,11
2013/12/12 1:12,3.3,10,3.3,10,5.8,10
2013/12/12 1:13,3.2,10,3.2,10,4.8,11
2013/12/12 1:14,3,10,3.1,10,5.2,10
2013/12/12 1:15,3,10,3.1,10,5.6,10
2013/12/12 1:16,2.9,10,3,10,4.7,11
2013/12/12 1:17,3,10,3,10,4.8,10
2013/12/12 1:18,3.1,10,3.1,10,4.7,10
2013/12/12 1:19,3.1,10,3.1,10,5,11
2013/12/12 1:20,3,10,3,10,3.5,10
2013/12/12 1:21,2.8,10,3,10,4.7,10
2013/12/12 1:22,2.7,10,2.8,10,4.3,10
2013/12/12 1:23,2.6,10,2.7,10,3.2,11
2013/12/12 1:24,2.8,10,2.8,10,5.1,10
2013/12/12 1:25,2.7,10,2.8,10,4.2,10
2013/12/12 1:26,2.6,10,2.8,10,3.8,9
2013/12/12 1:27,2.6,10,2.6,10,4.9,10
2013/12/12 1:28,2.6,10,2.6,10,4.7,10
2013/12/12 1:29,2.7,10,2.7,10,4.5,11
2013/12/12 1:30,2.7,10,2.7,10,4.9,10
2013/12/12 1:31,2.7,10,2.7,10,3.9,11
2013/12/12 1:32,2.7,10,2.7,10,4.3,11
2013/12/12 1:33,2.6,10,2.7,10,2.2,12
2013/12/12 1:34,2.4,10,2.6,10,2.1,13
2013/12/12 1:35,2.3,10,2.4,10,4.3,10
2013/12/12 1:36,2.3,10,2.4,10,3.5,10
2013/12/12 1:37,2.3,10,2.3,10,3.3,9
2013/12/12 1:38,2.2,11,2.3,10,3,10
2013/12/12 1:39,2.1,11,2.2,10,2.2,10
2013/12/12 1:40,2,11,2.1,10,3.1,10
2013/12/12 1:41,1.8,11,2,10,2.7,10
2013/12/12 1:42,1.7,11,1.8,10,1.3,11
2013/12/12 1:43,1.6,11,1.6,10,2.4,12
2013/12/12 1:44,1.7,11,1.7,10,3.1,12
2013/12/12 1:45,1.6,11,1.7,10,3.5,11
2013/12/12 1:46,1.6,11,1.6,10,3,11
2013/12/12 1:47,1.5,11,1.6,11,2.1,11
2013/12/12 1:48,1.5,11,1.6,11,4.1,12
2013/12/12 1:49,1.5,11,1.5,11,1.4,11
2013/12/12 1:50,1.4,11,1.4,11,2.2,10
2013/12/12 1:51,1.4,11,1.4,11,2.2,11
2013/12/12 1:52,1.6,11,1.6,11,2.7,10
2013/12/12 1:53,1.6,11,1.6,11,2.5,10
2013/12/12 1:54,1.6,11,1.6,11,2,11
2013/12/12 1:55,1.5,11,1.6,11,2.5,11
2013/12/12 1:56,1.4,11,1.5,11,2.2,11
2013/12/12 1:57,1.3,11,1.4,11,1.6,15
2013/12/12 1:58,1.2,11,1.3,11,2,13
2013/12/12 1:59,1.3,12,1.3,11,2,14
2013/12/12 2:00,1.3,12,1.3,11,1.8,13
2013/12/12 2:01,1.2,12,1.2,11,1.5,9
2013/12/12 2:02,1.1,12,1.1,11,3.9,13
2013/12/12 2:03,1.1,12,1.1,11,3.3,12
2013/12/12 2:04,1.1,12,1.1,11,2.1,8
2013/12/12 2:05,1.1,12,1.1,11,2.2,10
2013/12/12 2:06,1.1,12,1.1,11,2.4,11
2013/12/12 2:07,1.2,11,1.2,11,2.4,10
2013/12/12 2:08,1.2,11,1.2,11,2.1,10
2013/12/12 2:09,1.2,11,1.2,12,2,11
2013/12/12 2:10,1.1,11,1.2,12,1.3,13
2013/12/12 2:11,1.1,11,1.1,12,1.3,14
2013/12/12 2:12,1.1,11,1.1,12,1.4,14
2013/12/12 2:13,1.1,12,1.1,12,2.2,11
2013/12/12 2:14,1.1,11,1.1,12,3.1,11
2013/12/12 2:15,1.1,11,1.1,12,2.1,12
2013/12/12 2:16,1.1,12,1.1,12,1.4,13
2013/12/12 2:17,1,12,1,11,0.9,15
2013/12/12 2:18,0.9,12,1,11,1.4,15
2013/12/12 2:19,0.9,12,0.9,11,2.1,13
2013/12/12 2:20,0.9,12,0.9,11,1.8,12
2013/12/12 2:21,1,12,1,11,1.8,10
2013/12/12 2:22,1,11,1,11,2.2,9
2013/12/12 2:23,1,12,1,11,1,15
2013/12/12 2:24,0.9,11,1,11,1.8,10
2013/12/12 2:25,0.9,11,0.9,11,1.9,10
2013/12/12 2:26,0.9,11,0.9,12,2.9,11
2013/12/12 2:27,1.1,11,1.1,11,5.2,11
2013/12/12 2:28,1.3,11,1.3,11,4.4,10
2013/12/12 2:29,1.3,10,1.3,11,3.5,9
2013/12/12 2:30,1.4,11,1.4,10,3.9,9
2013/12/12 2:31,1.5,11,1.5,11,2.7,12
2013/12/12 2:32,1.5,11,1.5,11,2.9,12
2013/12/12 2:33,1.6,11,1.6,11,3.1,10
2013/12/12 2:34,1.7,11,1.7,11,3.3,10
2013/12/12 2:35,1.8,11,1.8,11,3.8,9
2013/12/12 2:36,1.8,11,1.9,11,3.3,10
2013/12/12 2:37,1.8,11,1.9,11,2.9,9
2013/12/12 2:38,1.7,11,1.8,11,3.2,10
2013/12/12 2:39,1.7,11,1.7,11,2.2,9
2013/12/12 2:40,1.7,10,1.7,11,2.9,9
2013/12/12 2:41,1.6,11,1.6,11,1.5,11
2013/12/12 2:42,1.5,10,1.5,11,2.1,10
2013/12/12 2:43,1.6,10,1.6,11,3,10
2013/12/12 2:44,1.6,10,1.6,11,2.4,11
2013/12/12 2:45,1.6,10,1.6,11,3.3,10
2013/12/12 2:46,1.5,10,1.6,11,3,9
2013/12/12 2:47,1.5,10,1.6,11,2.6,10
2013/12/12 2:48,1.5,10,1.6,10,3.5,9
2013/12/12 2:49,1.6,10,1.6,11,3,10
2013/12/12 2:50,1.5,10,1.6,10,2.2,10
2013/12/12 2:51,1.6,10,1.6,10,3,9
2013/12/12 2:52,1.6,10,1.6,10,2.6,9
2013/12/12 2:53,1.5,10,1.6,10,3,11
2013/12/12 2:54,1.5,10,1.5,10,3.1,11
2013/12/12 2:55,1.6,10,1.6,10,3.1,10
2013/12/12 2:56,1.6,10,1.6,10,2.4,10
2013/12/12 2:57,1.6,10,1.6,10,2.5,10
2013/12/12 2:58,1.5,10,1.6,10,2,12
2013/12/12 2:59,1.5,10,1.5,10,3.3,11
2013/12/12 3:00,1.6,10,1.6,10,3.5,11
2013/12/12 3:01,1.6,10,1.6,10,2.1,8
2013/12/12 3:02,1.7,10,1.7,10,3.5,10
2013/12/12 3:03,1.8,10,1.8,10,3.2,10
2013/12/12 3:04,1.7,10,1.8,10,2.6,11
2013/12/12 3:05,1.6,10,1.7,10,1.5,9
2013/12/12 3:06,1.5,10,1.6,10,2.4,8
2013/12/12 3:07,1.5,10,1.5,10,2,12
2013/12/12 3:08,1.5,10,1.6,10,2.1,9
2013/12/12 3:09,1.5,10,1.5,10,2.2,11
2013/12/12 3:10,1.4,11,1.5,10,2.5,10
2013/12/12 3:11,1.4,11,1.5,10,2.2,10
2013/12/12 3:12,1.3,11,1.4,10,1.6,9
2013/12/12 3:13,1.3,11,1.3,10,2.5,11
2013/12/12 3:14,1.3,11,1.3,10,2.9,10
2013/12/12 3:15,1.4,11,1.4,10,2.9,10
2013/12/12 3:16,1.4,11,1.4,10,1.9,9
2013/12/12 3:17,1.2,11,1.3,10,0.6,15
2013/12/12 3:18,1.2,11,1.2,10,0.9,12
2013/12/12 3:19,1.1,11,1.2,10,1.1,13
2013/12/12 3:20,1.1,11,1.1,11,2.2,11
2013/12/12 3:21,1.1,11,1.1,11,3.5,12
2013/12/12 3:22,1.2,11,1.2,11,2.5,9
2013/12/12 3:23,1.2,11,1.2,11,2.9,8
2013/12/12 3:24,1.2,11,1.2,11,3.1,9
2013/12/12 3:25,1.2,11,1.2,10,3.7,9
2013/12/12 3:26,1.3,10,1.3,11,3.3,9
2013/12/12 3:27,1.5,10,1.5,10,3.6,9
2013/12/12 3:28,1.7,10,1.7,10,4.2,10
2013/12/12 3:29,1.8,10,1.8,10,2.7,10
2013/12/12 3:30,1.8,10,1.8,10,2.5,10
2013/12/12 3:31,1.6,10,1.8,10,2.9,10
2013/12/12 3:32,1.7,10,1.7,10,2.5,11
2013/12/12 3:33,1.7,10,1.7,10,2.7,12
2013/12/12 3:34,1.6,10,1.7,10,2.4,9
2013/12/12 3:35,1.6,10,1.6,10,1.9,10
2013/12/12 3:36,1.5,10,1.6,10,2.4,9
2013/12/12 3:37,1.5,10,1.6,10,2.1,9
2013/12/12 3:38,1.4,10,1.5,10,2.4,12
2013/12/12 3:39,1.3,11,1.4,10,2.6,9
2013/12/12 3:40,1.3,11,1.4,10,2.1,10
2013/12/12 3:41,1.3,10,1.3,10,1.4,8
2013/12/12 3:42,1.1,10,1.3,10,0,11
2013/12/12 3:43,1,10,1.1,10,0,10
2013/12/12 3:44,0.9,10,1,10,0,9
2013/12/12 3:45,0.7,10,0.8,10,0,9
2013/12/12 3:46,0.6,10,0.7,10,0,9
2013/12/12 3:47,0.5,10,0.6,10,0,9
2013/12/12 3:48,0.3,10,0.5,11,0,8
2013/12/12 3:49,0.2,9,0.3,11,0,10
2013/12/12 3:50,0.1,9,0.2,11,0,9
2013/12/12 3:51,0,9,0.1,10,0,11
2013/12/12 3:52,0,9,0,10,0,11
2013/12/12 3:53,0,9,0,10,0,10
2013/12/12 3:54,0,10,0,10,0,13
2013/12/12 3:55,0,10,0,10,0,13
2013/12/12 3:56,0,10,0,10,0,10
2013/12/12 3:57,0,10,0,10,0,11
2013/12/12 3:58,0,11,0,10,0,11
2013/12/12 3:59,0,11,0,9,0,13
2013/12/12 4:00,0,11,0,9,0,12
2013/12/12 4:01,0,11,0,9,0,11
2013/12/12 4:02,0,11,0,9,0,10
2013/12/12 4:03,0,11,0,9,0,7
2013/12/12 4:04,0,11,0,10,0,8
2013/12/12 4:05,0,11,0,10,0,10
2013/12/12 4:06,0,10,0,10,0,9
2013/12/12 4:07,0,10,0,10,0,9
2013/12/12 4:08,0,10,0,11,0,11
2013/12/12 4:09,0,10,0,11,0,15
2013/12/12 4:10,0,9,0,11,0,9
2013/12/12 4:11,0,9,0,11,0,4
2013/12/12 4:12,0,9,0,11,0,10
2013/12/12 4:13,0,9,0,11,0,9
2013/12/12 4:14,0,9,0,11,0,8
2013/12/12 4:15,0,9,0,11,0,12
2013/12/12 4:16,0,10,0,10,0,9
2013/12/12 4:17,0,10,0,10,0,9
2013/12/12 4:18,0,10,0,10,0,13
2013/12/12 4:19,0,10,0,10,0,11
2013/12/12 4:20,0,10,0,9,0,8
2013/12/12 4:21,0,10,0,9,0,11
2013/12/12 4:22,0,10,0,9,0,11
2013/12/12 4:23,0,10,0,9,0,10
2013/12/12 4:24,0,10,0,9,0,11
2013/12/12 4:25,0,10,0,9,0,13
2013/12/12 4:26,0,10,0,10,0,9
2013/12/12 4:27,0,10,0,10,0,13
2013/12/12 4:28,0,10,0,10,0,12
2013/12/12 4:29,0,10,0,10,0,15
2013/12/12 4:30,0,10,0,10,0,8
2013/12/12 4:31,0,11,0,10,0,11
2013/12/12 4:32,0,11,0,10,0,13
2013/12/12 4:33,0,10,0,10,0,10
2013/12/12 4:34,0,10,0,10,0,9
2013/12/12 4:35,0,10,0,10,0,11
2013/12/12 4:36,0,10,0,10,0,9
2013/12/12 4:37,0,11,0,10,0,10
2013/12/12 4:38,0,10,0,10,0,10
2013/12/12 4:39,0,11,0,10,0,12
2013/12/12 4:40,0,10,0,10,0,12
2013/12/12 4:41,0,10,0,11,0,10
2013/12/12 4:42,0,10,0,10,0,11
2013/12/12 4:43,0,10,0,10,0,10
2013/12/12 4:44,0,10,0,10,0,14
2013/12/12 4:45,0,10,0,10,0,11
2013/12/12 4:46,0,10,0,10,0,9
2013/12/12 4:47,0,10,0,11,0,11
2013/12/12 4:48,0,10,0,10,0,10
2013/12/12 4:49,0,10,0,11,0,7
2013/12/12 4:50,0,10,0,10,0,10
2013/12/12 4:51,0,10,0,10,0,13
2013/12/12 4:52,0,10,0,10,0,10
2013/12/12 4:53,0,10,0,10,0,11
2013/12/12 4:54,0,10,0,10,0,12
2013/12/12 4:55,0,10,0,10,0,10
2013/12/12 4:56,0,10,0,10,0,10
2013/12/12 4:57,0,10,0,10,0,10
2013/12/12 4:58,0,10,0,10,0,10
2013/12/12 4:59,0,10,0,10,0,10
2013/12/12 5:00,0,10,0,10,0,10
2013/12/12 5:01,0,10,0,10,0,11
2013/12/12 5:02,0,10,0,10,0,11
2013/12/12 5:03,0,10,0,10,0,10
2013/12/12 5:04,0,10,0,10,0,9
2013/12/12 5:05,0,10,0,10,0,10
2013/12/12 5:06,0,10,0,10,0,9
2013/12/12 5:07,0,10,0,10,0,14
2013/12/12 5:08,0,10,0,10,0,12
2013/12/12 5:09,0,10,0,10,0,13
2013/12/12 5:10,0,10,0,10,0,11
2013/12/12 5:11,0,10,0,10,0,10
2013/12/12 5:12,0,10,0,10,0,11
2013/12/12 5:13,0,10,0,10,0,9
2013/12/12 5:14,0,10,0,10,0,10
2013/12/12 5:15,0,10,0,10,0,9
2013/12/12 5:16,0,10,0,10,0,7
2013/12/12 5:17,0,10,0,10,0,10
2013/12/12 5:18,0,10,0,10,0,11
2013/12/12 5:19,0,10,0,10,0,12
2013/12/12 5:20,0,10,0,10,0,12
2013/12/12 5:21,0,10,0,10,0,9
2013/12/12 5:22,0,10,0,10,0,14
2013/12/12 5:23,0,10,0,10,0,11
2013/12/12 5:24,0,10,0,10,0,10
2013/12/12 5:25,0,10,0,10,0,11
2013/12/12 5:26,0,10,0,10,0,9
2013/12/12 5:27,0,10,0,10,0,11
2013/12/12 5:28,0,10,0,10,0,10
2013/12/12 5:29,0,10,0,10,0,10
2013/12/12 5:30,0,10,0,10,0,9
2013/12/12 5:31,0,10,0,10,0,9
2013/12/12 5:32,0,10,0,10,0,10
2013/12/12 5:33,0,10,0,10,0,12
2013/12/12 5:34,0,10,0,10,0,10
2013/12/12 5:35,0,10,0,10,0,10
2013/12/12 5:36,0,10,0,10,0,10
2013/12/12 5:37,0,10,0,10,0,9
2013/12/12 5:38,0,10,0,10,0,12
2013/12/12 5:39,0,10,0,10,0,9
2013/12/12 5:40,0,10,0,10,0,9
2013/12/12 5:41,0,10,0,10,0,11
2013/12/12 5:42,0,10,0,10,0,10
2013/12/12 5:43,0,10,0,10,0,14
2013/12/12 5:44,0,10,0,10,0,12
2013/12/12 5:45,0,10,0,10,0,10
2013/12/12 5:46,0,10,0,10,0,10
2013/12/12 5:47,0,10,0,10,0,9
2013/12/12 5:48,0,10,0,10,0,12
2013/12/12 5:49,0,10,0,10,0,11
2013/12/12 5:50,0,10,0,10,0,9
2013/12/12 5:51,0,10,0,10,0,10
2013/12/12 5:52,0,10,0,10,0,11
2013/12/12 5:53,0,10,0,10,0,10
2013/12/12 5:54,0,10,0,10,0,10
2013/12/12 5:55,0,10,0,10,0,10
2013/12/12 5:56,0,10,0,10,0,10
2013/12/12 5:57,0,10,0,10,0,10
2013/12/12 5:58,0,10,0,10,0,7
2013/12/12 5:59,0,10,0,10,0,11
2013/12/12 6:00,0,10,0,10,0,10
2013/12/12 6:01,0,10,0,10,0,11
2013/12/12 6:02,0,10,0,10,0,12
2013/12/12 6:03,0,10,0,10,0,10
2013/12/12 6:04,0,10,0,10,0,9
2013/12/12 6:05,0,10,0,10,0,11
2013/12/12 6:06,0,10,0,10,0,10
2013/12/12 6:07,0,10,0,10,0,9
2013/12/12 6:08,0,10,0,10,0,9
2013/12/12 6:09,0,10,0,10,0,11
2013/12/12 6:10,0,10,0,10,0,10
2013/12/12 6:11,0,10,0,10,0,11
2013/12/12 6:12,0,10,0,10,0,10
2013/12/12 6:13,0,10,0,10,0,14
2013/12/12 6:14,0,10,0,10,0,7
2013/12/12 6:15,0,10,0,10,0,11
2013/12/12 6:16,0,10,0,10,0,8
2013/12/12 6:17,0,10,0,10,0,10
2013/12/12 6:18,0,10,0,10,0,10
2013/12/12 6:19,0,10,0,10,0,12
2013/12/12 6:20,0,10,0,10,0,9
2013/12/12 6:21,0,10,0,10,0,9
2013/12/12 6:22,0,10,0,10,0,10
2013/12/12 6:23,0,10,0,10,0,11
2013/12/12 6:24,0,10,0,10,0,11
2013/12/12 6:25,0,10,0,10,0,9
2013/12/12 6:26,0,10,0,10,0,12
2013/12/12 6:27,0,10,0,10,0,12
2013/12/12 6:28,0,10,0,10,0,12
2013/12/12 6:29,0,10,0,10,0,13
2013/12/12 6:30,0,10,0,10,0,11
2013/12/12 6:31,0,11,0,10,0,12
2013/12/12 6:32,0,11,0,10,0,4
2013/12/12 6:33,0,11,0,10,0,11
2013/12/12 6:34,0,11,0,10,0,9
2013/12/12 6:35,0,11,0,10,0,10
2013/12/12 6:36,0,11,0,10,0,10
2013/12/12 6:37,0,11,0,10,0,12
2013/12/12 6:38,0,10,0,10,0,9
2013/12/12 6:39,0,10,0,10,0,9
2013/12/12 6:40,0,10,0,11,0,7
2013/12/12 6:41,0,10,0,11,0,9
2013/12/12 6:42,0,10,0,11,0,10
2013/12/12 6:43,0,10,0,11,0,11
2013/12/12 6:44,0,10,0,11,0,11
2013/12/12 6:45,0,10,0,11,0,14
2013/12/12 6:46,0,10,0,11,0,9
2013/12/12 6:47,0,10,0,11,0,9
2013/12/12 6:48,0,10,0,10,0,5
2013/12/12 6:49,0,10,0,10,0,10
2013/12/12 6:50,0,10,0,10,0,11
2013/12/12 6:51,0,10,0,10,0,9
2013/12/12 6:52,0,10,0,10,0,11
2013/12/12 6:53,0,10,0,10,0,13
2013/12/12 6:54,0,10,0,10,0,9
2013/12/12 6:55,0,10,0,10,0,9
2013/12/12 6:56,0,10,0,10,0,10
2013/12/12 6:57,0,10,0,10,0,8
2013/12/12 6:58,0,10,0,10,0,7
2013/12/12 6:59,0,10,0,10,0,8
2013/12/12 7:00,0,10,0,10,0,10
2013/12/12 7:01,0,10,0,10,0,10
2013/12/12 7:02,0,10,0,10,0,11
2013/12/12 7:03,0,10,0,10,0,11
2013/12/12 7:04,0,10,0,10,0,9
2013/12/12 7:05,0,10,0,10,0,6
2013/12/12 7:06,0,10,0,10,0,9
2013/12/12 7:07,0,10,0,10,0,10
2013/12/12 7:08,0,10,0,10,0,10
2013/12/12 7:09,0,10,0,10,0,9
2013/12/12 7:10,0,10,0,10,0,10
2013/12/12 7:11,0,10,0,10,0,9
2013/12/12 7:12,0,10,0,10,0,10
2013/12/12 7:13,0,10,0,10,0,9
2013/12/12 7:14,0,10,0,10,0,11
2013/12/12 7:15,0,10,0,10,0,10
2013/12/12 7:16,0,10,0,10,0,12
2013/12/12 7:17,0,10,0,10,0,11
2013/12/12 7:18,0,10,0,10,0,14
2013/12/12 7:19,0,10,0,10,0,14
2013/12/12 7:20,0,10,0,10,0,12
2013/12/12 7:21,0,10,0,10,0,2
2013/12/12 7:22,0,10,0,10,0,8
2013/12/12 7:23,0,10,0,10,0,10
2013/12/12 7:24,0,10,0,10,0,10
2013/12/12 7:25,0,10,0,10,0,8
2013/12/12 7:26,0,10,0,10,0,9
2013/12/12 7:27,0,10,0,10,0,10
2013/12/12 7:28,0,10,0,10,0,10
2013/12/12 7:29,0,10,0,10,0,11
2013/12/12 7:30,0,10,0,10,0,10
2013/12/12 7:31,0,10,0,10,0,10
2013/12/12 7:32,0,10,0,10,0,10
2013/12/12 7:33,0,10,0,10,0,8
2013/12/12 7:34,0,10,0,10,0,1
2013/12/12 7:35,0,10,0,10,0,12
2013/12/12 7:36,0,10,0,10,0,9
2013/12/12 7:37,0,10,0,10,0,12
2013/12/12 7:38,0,10,0,10,0,16
2013/12/12 7:39,0,10,0,10,0,10
2013/12/12 7:40,0,10,0,10,0,11
2013/12/12 7:41,0,10,0,10,0,9
2013/12/12 7:42,0,10,0,10,0,9
2013/12/12 7:43,0.1,10,0.1,10,3.2,10
2013/12/12 7:44,0.3,10,0.3,10,4.4,9
2013/12/12 7:45,0.7,10,0.7,10,4.9,10
2013/12/12 7:46,0.9,10,0.9,10,3.9,9
2013/12/12 7:47,1.1,10,1.1,10,4.5,10
2013/12/12 7:48,1.5,10,1.5,10,5.8,9
2013/12/12 7:49,1.6,10,1.6,10,3.9,10
2013/12/12 7:50,1.9,10,1.9,10,5.6,10
2013/12/12 7:51,2.5,10,2.5,10,7.5,10
2013/12/12 7:52,2.7,10,2.7,10,6,9
2013/12/12 7:53,2.8,10,2.8,10,5,10
2013/12/12 7:54,2.7,10,2.8,10,3.7,10
2013/12/12 7:55,2.7,9,2.8,10,8.2,8
2013/12/12 7:56,2.8,10,2.8,10,6.8,10
2013/12/12 7:57,2.8,10,2.8,10,5.1,10
2013/12/12 7:58,2.7,9,2.8,10,6,11
2013/12/12 7:59,2.8,10,2.8,10,5.6,8
2013/12/12 8:00,2.7,9,2.8,10,5.2,9
2013/12/12 8:01,2.3,9,2.7,10,3.3,9
2013/12/12 8:02,2.3,9,2.3,10,4.7,8
2013/12/12 8:03,2.4,9,2.4,10,5.4,9
2013/12/12 8:04,2.5,9,2.5,10,7.8,10
2013/12/12 8:05,2.6,10,2.6,10,8.1,10
2013/12/12 8:06,2.5,10,2.7,10,5.2,9
2013/12/12 8:07,2.4,10,2.5,10,2.6,10
2013/12/12 8:08,2.4,10,2.4,10,4.7,10
2013/12/12 8:09,2.4,10,2.4,10,4.3,10
2013/12/12 8:10,2.4,10,2.4,9,4.5,9
2013/12/12 8:11,2.4,10,2.4,10,3.2,10
2013/12/12 8:12,2.3,10,2.4,10,3.7,8
2013/12/12 8:13,2.2,10,2.3,10,3.8,10
2013/12/12 8:14,2.2,10,2.3,10,4.8,9
2013/12/12 8:15,2.1,10,2.2,10,4.5,9
2013/12/12 8:16,2,10,2.1,10,5.1,9
2013/12/12 8:17,2.2,10,2.2,10,6.1,10
2013/12/12 8:18,2.1,10,2.2,10,5.2,8
2013/12/12 8:19,2.3,10,2.3,10,5.7,9
2013/12/12 8:20,2.3,10,2.3,10,5.2,9
2013/12/12 8:21,2.4,10,2.4,10,5,10
2013/12/12 8:22,2.5,10,2.5,10,3.8,9
2013/12/12 8:23,2.5,10,2.5,10,3.7,9
2013/12/12 8:24,2.5,10,2.5,10,5,8
2013/12/12 8:25,2.4,10,2.5,10,5.6,9
2013/12/12 8:26,2.4,10,2.5,10,3.2,9
2013/12/12 8:27,2.2,10,2.4,10,3.3,9
2013/12/12 8:28,2.2,10,2.2,10,6.9,9
2013/12/12 8:29,2.2,10,2.3,10,6.3,8
2013/12/12 8:30,2.2,10,2.2,10,5.8,9
2013/12/12 8:31,2.2,9,2.2,10,5.4,9
2013/12/12 8:32,2.3,9,2.3,10,5.8,8
2013/12/12 8:33,2.5,9,2.5,10,5.7,9
2013/12/12 8:34,2.3,9,2.4,10,4.4,10
2013/12/12 8:35,2.4,10,2.4,10,6.4,9
2013/12/12 8:36,2.5,9,2.5,9,5.8,9
2013/12/12 8:37,2.6,9,2.6,9,4.4,7
2013/12/12 8:38,2.8,9,2.8,9,7.5,9
2013/12/12 8:39,2.6,9,2.8,9,6.3,10
2013/12/12 8:40,2.7,9,2.7,9,5.8,8
2013/12/12 8:41,2.8,9,2.8,9,4.9,11
2013/12/12 8:42,2.6,9,2.8,9,4.2,10
2013/12/12 8:43,2.6,9,2.7,9,6.2,9
2013/12/12 8:44,2.8,9,2.8,9,6.1,9
2013/12/12 8:45,2.8,9,2.8,9,5.1,9
2013/12/12 8:46,2.8,9,2.8,9,4.4,10
2013/12/12 8:47,2.8,10,2.8,9,3.7,10
2013/12/12 8:48,2.6,10,2.8,9,4.8,10
2013/12/12 8:49,2.5,10,2.6,9,5,9
2013/12/12 8:50,2.4,10,2.5,9,4.7,9
2013/12/12 8:51,2.4,10,2.4,9,3.9,10
2013/12/12 8:52,2.4,10,2.4,9,4.8,11
2013/12/12 8:53,2.4,10,2.5,9,6.4,10
2013/12/12 8:54,2.3,10,2.4,9,3.8,9
2013/12/12 8:55,2.2,10,2.2,9,3.5,11
2013/12/12 8:56,2.2,10,2.2,9,6,10
2013/12/12 8:57,2.4,10,2.4,10,7.6,10
2013/12/12 8:58,2.4,10,2.5,10,4.8,8
2013/12/12 8:59,2.5,10,2.5,10,6.1,9
2013/12/12 9:00,2.5,10,2.5,10,5.8,9
2013/12/12 9:01,2.6,10,2.6,10,5.6,9
2013/12/12 9:02,2.5,10,2.6,10,5,10
2013/12/12 9:03,2.4,10,2.5,10,4.2,9
2013/12/12 9:04,2.5,10,2.5,10,4.5,8
2013/12/12 9:05,2.8,10,2.8,10,7.1,9
2013/12/12 9:06,2.9,10,2.9,10,6.9,10
2013/12/12 9:07,2.6,10,2.9,10,6.1,10
2013/12/12 9:08,2.8,10,2.8,10,6.8,10
2013/12/12 9:09,2.8,10,2.9,10,5.6,10
2013/12/12 9:10,2.8,10,2.8,10,4.4,9
2013/12/12 9:11,2.9,10,2.9,10,5.5,11
2013/12/12 9:12,3,10,3,10,6.2,9
2013/12/12 9:13,3.1,10,3.1,10,5.8,10
2013/12/12 9:14,3.3,10,3.3,10,6.5,10
2013/12/12 9:15,3.2,10,3.3,10,8.1,10
2013/12/12 9:16,3.2,10,3.2,10,5.8,10
2013/12/12 9:17,3.3,10,3.3,10,5.1,8
2013/12/12 9:18,3.2,10,3.4,10,4.5,10
2013/12/12 9:19,3.4,10,3.4,10,5.4,10
2013/12/12 9:20,3.4,10,3.5,10,5.4,10
2013/12/12 9:21,3.4,10,3.5,10,5,9
2013/12/12 9:22,3.3,10,3.4,10,4.1,8
2013/12/12 9:23,3.2,10,3.3,10,5,9
2013/12/12 9:24,3,10,3.2,10,5.2,9
2013/12/12 9:25,2.8,10,3,10,4.8,10
2013/12/12 9:26,2.8,10,2.8,10,5.7,9
2013/12/12 9:27,2.7,10,2.7,10,5.7,10
2013/12/12 9:28,2.8,10,2.8,10,5.5,10
2013/12/12 9:29,2.7,10,2.8,10,6.7,10
2013/12/12 9:30,2.7,10,2.7,10,7,10
2013/12/12 9:31,2.9,10,2.9,10,5.8,10
2013/12/12 9:32,3,10,3,10,5,10
2013/12/12 9:33,3.2,10,3.2,10,6.7,10
2013/12/12 9:34,3.3,10,3.3,10,6.2,10
2013/12/12 9:35,3.3,10,3.3,10,7.2,10
2013/12/12 9:36,3.6,10,3.6,10,8.6,10
2013/12/12 9:37,3.8,10,3.8,10,7.4,9
2013/12/12 9:38,3.7,10,3.8,10,4.3,9
2013/12/12 9:39,3.6,10,3.7,10,5.6,9
2013/12/12 9:40,3.7,10,3.7,10,5.7,10
2013/12/12 9:41,3.6,10,3.7,10,5.4,10
2013/12/12 9:42,3.5,10,3.6,10,6.5,9
2013/12/12 9:43,3.5,10,3.6,10,5.4,10
2013/12/12 9:44,3.2,10,3.5,10,4.2,8
2013/12/12 9:45,3.3,10,3.4,10,6.2,10
2013/12/12 9:46,3,10,3.3,10,5.7,10
2013/12/12 9:47,3,10,3,10,6.3,10
2013/12/12 9:48,3.1,10,3.1,10,5.1,10
2013/12/12 9:49,3.2,10,3.3,10,5.5,9
2013/12/12 9:50,3.1,10,3.2,10,6.3,11
2013/12/12 9:51,3,10,3.1,10,4.9,10
2013/12/12 9:52,2.9,10,3,10,4.4,10
2013/12/12 9:53,2.7,10,2.9,10,2.9,10
2013/12/12 9:54,2.8,10,2.8,10,4.2,8
2013/12/12 9:55,2.8,10,2.8,10,6.9,9
2013/12/12 9:56,2.7,10,2.9,10,5.2,9
2013/12/12 9:57,2.7,10,2.8,10,6.5,10
2013/12/12 9:58,2.7,10,2.8,10,4.5,9
2013/12/12 9:59,2.8,10,2.8,10,6.9,9
2013/12/12 10:00,2.9,10,2.9,10,6.4,9
2013/12/12 10:01,2.9,10,2.9,10,5.7,10
2013/12/12 10:02,2.9,10,2.9,10,4.7,8
2013/12/12 10:03,2.9,10,2.9,10,2.1,7
2013/12/12 10:04,2.8,10,2.9,10,5.4,9
2013/12/12 10:05,2.8,10,2.9,10,6.9,10
2013/12/12 10:06,2.7,10,2.8,10,3.1,10
2013/12/12 10:07,2.5,10,2.7,10,4.9,8
2013/12/12 10:08,2.4,10,2.5,10,4.4,9
2013/12/12 10:09,2.2,10,2.4,10,4.9,9
2013/12/12 10:10,2.3,10,2.3,10,5.1,10
2013/12/12 10:11,2.2,10,2.2,10,4.8,10
2013/12/12 10:12,2.2,10,2.2,10,4.8,9
2013/12/12 10:13,2.5,10,2.5,10,5.1,9
2013/12/12 10:14,2.5,10,2.5,10,4.7,9
2013/12/12 10:15,2.6,10,2.6,10,7.1,10
2013/12/12 10:16,2.8,10,2.8,10,6.1,10
2013/12/12 10:17,3,10,3,10,8.3,10
2013/12/12 10:18,3,10,3,10,7.7,10
2013/12/12 10:19,3.1,10,3.1,10,4.5,10
2013/12/12 10:20,3,10,3.1,10,5,10
2013/12/12 10:21,3,10,3,10,3.3,11
2013/12/12 10:22,2.9,10,3,10,4.4,9
2013/12/12 10:23,2.9,10,2.9,10,5.8,11
2013/12/12 10:24,3,10,3,10,5.7,10
2013/12/12 10:25,2.8,10,3,10,5.5,9
2013/12/12 10:26,2.7,10,2.8,10,4.5,10
2013/12/12 10:27,2.5,10,2.7,10,4.2,10
2013/12/12 10:28,2.4,10,2.5,10,4.2,10
2013/12/12 10:29,2.2,10,2.3,10,3.7,10
2013/12/12 10:30,2.4,10,2.4,10,5.5,10
2013/12/12 10:31,2.6,10,2.6,10,5.2,12
2013/12/12 10:32,2.8,10,2.8,10,6.7,10
2013/12/12 10:33,2.9,10,2.9,10,7,9
2013/12/12 10:34,2.8,10,2.9,10,5.7,9
2013/12/12 10:35,2.9,10,2.9,10,4.3,10
2013/12/12 10:36,2.8,10,2.9,10,3.9,9
2013/12/12 10:37,3,10,3,10,3.8,9
2013/12/12 10:38,3.1,10,3.1,10,5.2,9
2013/12/12 10:39,3.3,10,3.3,10,5.5,9
2013/12/12 10:40,3.2,10,3.3,10,4.8,10
2013/12/12 10:41,3,9,3.2,10,4.3,8
2013/12/12 10:42,2.8,9,3,10,4.7,9
2013/12/12 10:43,2.6,9,2.8,10,5.6,9
2013/12/12 10:44,2.6,10,2.6,10,5.5,9
2013/12/12 10:45,2.6,10,2.7,10,6.3,10
2013/12/12 10:46,2.7,10,2.7,10,6.3,10
2013/12/12 10:47,2.8,10,2.8,10,6,10
2013/12/12 10:48,2.9,10,2.9,10,5.7,9
2013/12/12 10:49,3.1,10,3.1,10,7,11
2013/12/12 10:50,3.2,10,3.2,10,7.4,10
2013/12/12 10:51,3.4,10,3.4,10,7.2,9
2013/12/12 10:52,3.6,10,3.6,10,9.3,10
2013/12/12 10:53,4,10,4,10,8.9,9
2013/12/12 10:54,4,10,4.1,10,9,10
2013/12/12 10:55,4,10,4,10,6.3,9
2013/12/12 10:56,4,10,4,10,4.3,9
2013/12/12 10:57,3.9,10,3.9,10,6.1,11
2013/12/12 10:58,3.9,10,3.9,10,6,10
2013/12/12 10:59,3.8,10,3.9,10,5.6,10
2013/12/12 11:00,3.7,10,3.8,10,4.4,10
2013/12/12 11:01,3.7,10,3.7,10,5.4,11
2013/12/12 11:02,3.6,10,3.7,10,5.4,11
2013/12/12 11:03,3.2,10,3.5,10,5.5,10
2013/12/12 11:04,3.3,10,3.3,10,4.3,10
2013/12/12 11:05,3,10,3.2,10,2.9,11
2013/12/12 11:06,3.1,10,3.1,10,5.5,10
2013/12/12 11:07,3.2,10,3.2,10,7.1,10
2013/12/12 11:08,3.3,10,3.3,10,7.1,10
2013/12/12 11:09,3.3,10,3.4,10,6.3,10
2013/12/12 11:10,3.2,10,3.3,10,6.3,10
2013/12/12 11:11,3.1,10,3.2,10,6.9,10
2013/12/12 11:12,3.1,10,3.2,10,6.1,10
2013/12/12 11:13,3.2,10,3.2,10,6,10
2013/12/12 11:14,3.2,10,3.2,10,6.3,10
2013/12/12 11:15,3.6,10,3.6,10,7.6,9